Location: Recife
(8.0585°S, 34.8848°W)
Time: 20:29:10
(UTC-03:00)

S-56A Canister/Altair - Pass Details

Date: 23 April 2026
Orbit: 633 x 2484 km, 38.9° (Epoch: 16 May)

Event Time Altitude Azimuth Distance (km) Brightness Sun altitude
Rises 12:35:08 0° 293° (WNW) 6,013 12.5 61.7°
Reaches altitude 10° 12:39:41 10° 286° (WNW) 4,847 12.2 61.0°
Maximum altitude 12:51:43 41° 221° (SW) 2,460 10.7 58.8°
Drops below altitude 10° 13:00:21 10° 153° (SSE) 3,489 10.7 57.2°
Sets 13:03:07 0° 145° (SE) 4,225 11.0 56.6°
